Temperature
18 18 18 18 18 18 18 17 17 17 17 17 17 17 17 17 17 17 17 16 16 16 16 16 16 16 17 17 17 17 17 17 17 17 17 17 16 16 16 16 16 15 15
18 18 18 18 17 18 17 17 17 17 17 17 17 17 17 17 17 17 17 16 16 16 16 16 16 16 16 16 16 16 16 16 16 16 16 16 16 15 15 15 15 15 15
18 18 17 17 17 17 17 17 17 17 17 17 17 17 17 16 16 16 16 16 16 16 16 16 16 16 16 16 16 16 16 16 15 15 15 15 15 15 15 15 14 14 14
18 18 17 17 17 17 17 17 17 17 17 16 16 16 16 16 16 16 16 16 16 16 15 15 15 15 15 15 15 15 15 15 15 15 15 14 14 14 14 14 14 14 14
18 17 17 17 17 17 17 16 16 16 16 16 16 16 16 16 16 16 16 15 15 15 15 15 14 14 14 14 14 14 14 14 14 14 13 13 13 13 13 13 12 12 12
17 17 17 17 17 16 16 16 16 16 16 16 16 16 16 15 15 15 15 15 15 14 14 14 14 14 14 14 14 13 13 13 13 13 12 12 12 12 12 12 11 12 12
17 17 17 16 16 16 16 16 16 15 15 15 15 15 15 15 15 15 14 14 14 14 13 13 13 13 13 13 13 13 12 12 12 12 12 12 11 11 11 11 11 11 11
17 16 16 16 16 15 15 15 15 15 15 15 15 14 14 14 14 14 14 14 13 13 13 12 12 12 12 12 12 12 11 11 11 11 11 10 10 10 10 10 10 10 10
16 16 16 16 15 15 15 15 15 14 14 14 14 14 13 13 13 13 13 13 13 12 12 12 11 11 11 11 11 10 10 10 10 10 10 9 9 9 9 9 9 9 9
16 16 15 15 15 15 15 14 14 14 14 13 13 13 13 12 12 12 12 12 12 11 11 11 11 10 10 10 10 10 9 9 9 9 9 8 8 8 8 8 8 8 7
15 15 15 15 15 14 14 14 14 13 13 13 12 12 12 12 11 11 11 11 11 10 10 10 10 9 9 9 9 9 8 8 8 8 8 8 7 7 7 7 7 7 7
15 15 14 14 14 14 14 13 13 13 12 12 12 11 11 10 10 10 10 10 10 10 9 9 9 9 9 8 8 8 8 8 8 8 7 7 7 7 6 6 6 6 6
14 14 14 13 13 13 13 12 12 12 11 11 11 10 10 10 9 9 9 9 9 9 9 8 8 8 8 8 7 7 7 7 7 7 7 7 6 6 6 6 6 6 6
14 13 13 13 12 12 12 11 11 11 11 10 10 9 9 9 9 8 8 8 8 8 8 8 8 8 7 7 7 7 7 6 6 6 6 6 6 6 6 5 5 5 5
13 12 12 12 12 11 11 11 11 11 10 10 10 9 9 8 8 8 8 8 8 8 8 7 7 7 7 7 7 6 6 6 6 6 6 6 5 5 5 5 5 5 5
12 12 11 11 11 10 10 10 9 9 9 9 9 9 8 8 8 7 7 7 7 7 7 7 7 7 7 7 6 6 6 5 5 5 5 5 5 5 5 5 5 4 4
12 11 11 10 10 10 9 9 9 8 8 8 8 8 8 7 7 7 7 7 7 7 7 7 7 7 6 6 6 6 5 5 5 5 5 5 4 4 4 4 4 4 4
11 10 10 10 9 9 9 8 8 8 8 7 7 7 7 7 7 7 7 7 7 7 7 6 6 6 6 6 5 5 5 5 4 4 4 4 4 4 4 4 4 4 4
10 10 9 9 9 9 8 8 7 7 7 7 7 6 7 6 7 7 7 7 7 7 6 6 6 6 5 5 5 4 4 4 4 4 4 4 4 4 4 4 4 3 3
9 9 9 9 9 8 8 8 7 7 7 7 6 6 6 6 6 6 6 6 6 6 6 6 5 5 5 4 4 4 4 4 4 3 3 3 3 3 3 3 3 3 3
9 9 9 9 9 9 8 8 7 7 7 7 6 6 7 7 7 6 6 6 6 6 6 5 5 5 4 4 4 4 4 3 3 3 3 3 3 3 3 3 3 3 3
9 9 9 9 9 9 8 8 8 7 7 7 7 7 7 7 7 7 6 6 6 5 5 5 5 4 4 4 4 3 3 3 3 3 2 2 2 2 2 2 2 2 2
9 9 9 9 9 8 8 8 8 8 7 7 7 7 7 7 7 6 6 6 5 5 5 5 4 4 4 3 3 3 3 3 3 3 2 2 2 2 2 2 2 2 2
9 9 9 9 8 8 8 8 8 8 8 7 7 7 7 7 6 6 6 6 5 5 5 4 4 4 3 3 3 3 3 3 3 2 2 2 2 2 2 2 2 2 2
9 9 9 9 9 9 9 8 8 8 8 8 7 7 7 6 6 6 6 5 5 5 4 4 4 4 3 3 3 3 3 3 3 2 2 2 2 2 2 2 2 2 2
9 9 9 9 9 9 9 8 8 8 8 8 7 7 7 7 6 6 6 5 5 5 4 4 4 4 3 3 3 3 3 3 3 2 2 2 2 2 1 1 1 2 2
Wind_Speed
7 6 5 6 7 6 5 5 5 4 4 5 5 6 6 6 6 6 5 5 5 4 3 2 2 0 2 2 2 2 2 1 1 2 1 2 3 3 3 1 0 3 4
7 6 6 6 6 6 6 5 5 4 4 4 4 5 5 5 5 5 5 4 4 4 2 1 1 1 0 2 2 2 2 1 1 1 1 2 2 2 1 1 2 2 1
7 6 6 5 5 5 5 4 4 5 4 4 4 4 3 3 4 5 4 3 3 3 3 3 2 2 2 2 2 3 3 3 1 0 1 2 2 3 3 3 3 3 4
7 6 5 5 5 5 4 4 4 4 4 3 3 3 3 3 4 4 4 4 5 5 5 5 5 4 4 3 3 3 3 3 2 2 2 3 3 4 4 3 3 3 4
6 6 5 5 5 4 4 4 4 4 4 4 4 4 4 4 3 5 5 5 6 6 6 7 8 11 11 8 5 5 4 4 3 3 3 3 4 4 4 3 3 3 3
6 5 6 6 5 4 4 5 5 5 5 5 5 5 6 4 6 7 6 6 7 7 7 7 8 9 12 14 15 14 11 7 5 5 5 5 5 5 5 4 4 4 3
6 6 7 7 6 5 6 6 6 6 7 7 7 8 8 7 9 10 10 8 8 7 6 6 7 7 8 8 10 12 14 14 11 7 6 5 4 5 5 5 4 4 3
7 6 7 7 7 7 6 7 7 7 7 7 7 7 8 8 9 10 11 10 9 8 8 7 8 7 7 7 9 10 9 9 9 7 6 5 5 4 4 4 5 5 3
7 7 7 8 8 8 8 8 7 8 8 8 8 8 8 8 9 9 10 9 9 9 9 9 8 7 9 9 8 8 7 6 10 10 8 6 6 7 7 5 6 5 4
7 7 7 8 8 9 9 8 8 8 9 8 9 8 8 8 9 9 8 8 9 9 9 9 13 11 11 11 8 7 6 4 3 2 2 2 2 5 7 6 5 5 5
8 9 9 8 9 9 9 8 9 9 10 9 10 9 9 9 10 11 9 6 8 8 8 8 7 11 12 11 9 6 4 2 1 1 2 2 3 3 5 6 5 3 3
10 10 9 9 9 9 10 9 9 10 10 9 9 9 8 8 9 10 11 10 9 9 8 7 7 10 10 10 7 6 6 4 2 2 3 3 3 3 2 3 3 3 4
11 11 10 10 9 9 9 9 8 7 8 8 8 8 8 7 9 14 15 15 14 9 8 10 9 8 6 4 4 5 4 4 4 4 4 4 3 2 2 3 4 6 7
12 11 10 10 10 10 8 7 6 6 7 7 8 8 8 7 7 6 7 9 11 10 7 7 5 3 2 1 1 2 2 4 3 4 4 3 3 2 2 3 4 4 4
12 11 11 11 11 11 11 10 9 8 6 7 7 7 8 7 5 6 5 5 5 6 4 3 3 2 2 3 3 3 3 4 4 4 3 4 4 4 4 4 4 4 4
12 11 10 10 10 11 12 13 19 16 19 18 13 11 9 10 10 11 11 10 8 5 2 2 3 3 4 4 4 3 4 5 4 4 4 4 4 4 4 3 4 4 5
11 11 10 10 10 10 10 11 11 13 18 18 15 14 13 11 11 10 9 7 4 3 2 4 5 4 4 4 4 4 4 4 3 4 4 4 4 4 4 4 4 4 5
11 11 11 9 9 9 10 10 9 10 10 9 10 11 11 10 8 7 6 4 1 1 2 5 4 4 5 5 5 5 4 4 4 4 4 4 4 4 4 5 4 4 5
10 9 9 9 9 9 10 9 9 10 10 9 7 5 5 5 3 2 2 1 2 4 5 5 5 5 5 5 5 4 4 3 4 4 4 4 5 5 4 5 5 6 5
9 12 10 9 9 9 9 9 9 9 9 8 7 6 5 4 3 3 1 1 3 5 5 5 4 4 4 4 3 3 3 3 4 4 5 5 5 5 5 6 5 5 5
9 9 10 9 8 8 8 9 8 8 8 8 7 6 4 4 4 4 4 3 4 4 4 3 3 4 4 3 3 3 4 5 5 5 5 5 6 5 5 5 5 5 6
8 8 7 7 7 7 8 7 7 8 9 9 8 6 4 2 3 4 4 4 4 4 4 3 3 4 4 4 4 4 5 5 5 5 5 6 5 5 6 5 6 6 6
8 8 8 7 7 8 7 7 7 8 8 8 7 6 4 2 3 4 4 4 4 4 5 4 3 4 5 5 6 6 5 5 5 6 6 6 7 6 6 6 7 8 7
7 8 9 8 7 6 6 6 7 7 7 7 6 5 4 4 4 4 4 4 4 4 4 4 3 4 5 5 5 6 6 6 6 7 8 7 8 6 6 6 7 8 8
7 7 8 7 6 6 6 5 5 6 6 6 6 5 5 4 4 4 3 3 3 3 3 3 2 3 4 4 5 6 4 4 5 6 8 9 8 7 7 8 7 8 8
7 7 7 6 5 5 5 5 5 6 5 5 5 5 4 4 4 4 3 3 3 3 2 2 2 3 3 4 6 5 2 2 4 7 8 8 8 7 7 7 9 8 9
Wind_Direction
176 180 176 177 181 187 197 198 184 180 172 172 185 191 189 190 191 194 210 196 186 193 218 209 183 293 6 10 17 7 358 355 296 319 41 57 60 46 68 344 227 145 179
171 169 169 173 175 182 190 189 179 179 179 179 184 191 198 190 186 191 200 192 173 175 187 146 139 200 87 358 6 352 347 4 353 318 358 36 42 40 20 341 14 41 62
166 169 167 172 173 173 171 173 173 176 180 174 177 188 199 179 164 167 164 148 132 125 112 92 71 50 48 38 23 360 357 357 37 193 346 41 43 23 23 13 18 34 24
163 164 160 166 162 161 160 163 164 159 159 153 153 164 155 140 139 141 138 127 112 99 91 84 73 63 50 39 35 14 355 354 13 34 52 53 39 19 30 8 6 16 14
149 149 143 140 131 135 134 131 122 124 136 120 114 108 103 107 116 123 123 127 118 105 93 87 80 78 70 64 60 39 27 28 31 39 54 54 40 29 16 348 3 0 21
140 138 131 128 126 125 126 120 111 106 102 101 97 94 87 89 86 99 114 114 111 110 108 102 96 85 82 79 73 64 55 52 45 51 52 56 42 24 6 2 13 2 348
133 127 125 126 122 116 119 111 106 102 95 90 88 89 86 73 76 87 95 98 95 95 95 92 91 78 80 87 82 72 59 54 56 68 68 54 44 18 3 359 1 341 310
131 126 124 124 120 117 111 106 102 100 99 96 94 94 88 74 77 88 96 95 88 83 84 89 90 76 65 79 85 76 65 54 58 70 75 63 58 24 360 347 340 329 329
131 126 124 126 125 121 115 108 106 102 96 93 90 89 88 76 73 88 101 102 94 82 72 67 73 71 58 70 88 91 86 76 74 84 91 91 69 41 23 13 7 360 359
119 117 116 119 121 117 114 111 106 101 96 91 86 83 84 78 64 75 94 109 105 97 85 73 65 68 61 58 74 77 73 53 54 80 98 104 79 50 41 35 21 3 355
106 103 103 106 109 109 107 105 106 104 100 94 90 82 77 75 69 69 78 99 111 105 95 83 70 68 64 59 65 70 62 8 347 48 81 73 57 53 47 35 31 11 355
108 106 104 102 104 106 105 103 106 110 108 105 99 88 76 70 70 74 75 77 92 97 96 95 93 83 72 63 62 47 29 15 7 39 55 48 47 42 25 355 342 310 276
105 103 101 98 95 101 107 112 114 113 113 113 109 103 95 89 80 76 77 79 82 90 97 108 112 105 88 73 68 42 28 27 25 35 40 37 31 13 336 339 335 321 302
110 105 102 98 91 82 78 80 89 99 110 113 111 110 107 98 94 95 96 96 99 100 108 116 120 118 113 89 66 52 63 49 24 27 26 18 5 360 3 4 354 337 329
109 105 100 95 94 83 74 64 71 61 81 103 108 110 113 103 85 89 105 103 104 105 123 146 154 150 137 120 98 77 63 49 30 16 15 14 10 9 12 10 354 343 349
114 110 106 105 103 101 95 80 61 67 67 69 78 93 90 97 96 80 76 76 77 69 72 106 97 81 73 71 69 69 64 50 18 6 18 18 10 3 358 358 353 356 356
114 114 113 112 112 111 109 107 98 75 66 64 70 82 91 92 83 73 64 53 44 34 62 85 75 66 60 55 54 53 55 55 21 2 16 15 0 350 353 355 354 359 350
110 113 116 117 118 117 115 114 112 110 100 84 69 75 87 89 81 65 48 33 71 85 75 79 78 70 60 50 46 37 33 43 28 360 13 10 356 349 354 351 350 2 342
114 117 116 118 119 120 121 120 116 112 111 111 111 96 89 103 90 50 27 23 65 81 76 71 69 66 62 57 46 26 19 38 27 354 13 4 352 349 352 345 345 351 338
108 114 121 124 125 127 127 126 123 123 124 126 129 132 144 152 139 131 133 46 73 77 75 77 72 71 69 61 51 14 4 35 27 9 11 359 350 347 344 340 342 342 340
118 122 125 127 129 130 130 130 131 131 130 131 132 136 150 161 136 119 110 90 80 80 72 75 83 78 73 69 46 10 18 35 30 11 1 351 345 343 336 335 337 340 336
128 133 136 131 132 133 135 138 138 136 135 131 134 147 176 177 129 120 112 102 92 84 75 59 66 71 61 50 44 26 25 31 22 5 349 341 335 333 333 335 338 336 332
141 142 134 130 126 129 135 134 134 136 139 142 145 149 155 152 117 107 102 95 88 86 84 77 63 64 70 64 59 56 41 27 7 357 345 338 332 331 332 334 333 332 332
142 135 131 130 132 142 140 139 144 147 146 143 142 141 135 121 108 106 104 103 104 98 94 90 83 78 77 72 66 71 61 37 8 355 344 325 321 325 329 328 326 327 326
132 127 127 131 141 146 142 145 143 140 141 142 143 143 143 143 138 132 126 124 124 118 117 111 104 94 88 82 81 89 71 39 13 351 330 316 314 317 320 320 320 318 320
133 133 135 139 144 145 144 145 141 141 146 148 147 149 155 156 149 145 145 146 143 135 141 147 140 123 120 113 117 116 87 11 341 334 323 307 303 306 317 314 318 319 319
Height
1507 1509 1512 1514 1517 1519 1522 1524 1526 1529 1531 1533 1535 1537 1539 1540 1542 1544 1546 1547 1549 1551 1553 1554 1555 1557 1558 1559 1560 1561 1562 1562 1563 1563 1563 1563 1563 1564 1563 1563 1563 1562 1562
1506 1508 1511 1513 1515 1517 1519 1521 1524 1526 1528 1530 1533 1534 1536 1538 1539 1541 1543 1545 1547 1548 1550 1551 1553 1554 1555 1557 1557 1558 1559 1560 1560 1560 1561 1561 1561 1561 1561 1561 1560 1560 1559
1506 1508 1510 1512 1514 1515 1517 1519 1521 1523 1525 1528 1530 1531 1533 1535 1537 1538 1541 1542 1544 1545 1547 1548 1550 1551 1553 1554 1554 1556 1556 1557 1557 1558 1558 1558 1558 1558 1558 1558 1558 1557 1557
1506 1507 1509 1510 1512 1514 1516 1518 1520 1521 1523 1525 1527 1528 1530 1532 1534 1536 1538 1539 1541 1543 1544 1546 1547 1548 1550 1551 1552 1552 1553 1554 1554 1555 1555 1555 1555 1555 1555 1555 1555 1554 1554
1505 1506 1508 1509 1511 1513 1515 1516 1518 1520 1522 1523 1525 1526 1528 1530 1531 1533 1535 1537 1538 1540 1542 1544 1545 1546 1547 1549 1549 1550 1551 1551 1552 1552 1552 1552 1552 1552 1552 1552 1552 1551 1551
1503 1505 1507 1509 1510 1512 1514 1516 1517 1519 1521 1522 1524 1525 1526 1528 1530 1531 1533 1535 1536 1538 1540 1541 1542 1544 1545 1546 1547 1548 1549 1549 1549 1550 1550 1550 1550 1550 1550 1550 1549 1549 1548
1503 1505 1506 1508 1510 1511 1513 1515 1516 1518 1520 1521 1522 1524 1525 1527 1529 1530 1532 1533 1534 1536 1538 1539 1541 1542 1543 1544 1545 1546 1546 1547 1548 1548 1548 1548 1548 1548 1548 1547 1547 1547 1546
1502 1504 1506 1507 1509 1511 1512 1514 1516 1517 1519 1520 1522 1523 1524 1526 1528 1529 1530 1532 1533 1535 1537 1538 1540 1541 1542 1543 1543 1544 1545 1545 1546 1547 1548 1547 1547 1547 1547 1546 1545 1545 1545
1502 1504 1505 1507 1508 1510 1512 1513 1515 1517 1518 1519 1521 1523 1524 1526 1527 1529 1530 1531 1532 1534 1536 1538 1539 1540 1541 1541 1543 1543 1544 1545 1546 1546 1547 1547 1546 1546 1546 1545 1544 1543 1543
1501 1503 1505 1507 1508 1510 1511 1513 1515 1516 1518 1520 1521 1523 1524 1526 1528 1529 1530 1531 1532 1534 1536 1538 1539 1540 1541 1541 1542 1543 1544 1545 1546 1546 1547 1547 1546 1546 1545 1544 1543 1543 1541
1501 1503 1504 1506 1508 1510 1511 1513 1515 1516 1518 1520 1522 1524 1525 1527 1528 1530 1531 1532 1533 1534 1536 1538 1539 1540 1541 1542 1542 1544 1545 1546 1547 1547 1547 1547 1547 1546 1545 1544 1543 1542 1541
1500 1502 1504 1506 1508 1510 1511 1513 1515 1517 1518 1520 1522 1524 1526 1528 1529 1531 1532 1533 1535 1535 1537 1538 1540 1541 1542 1543 1544 1545 1546 1547 1548 1548 1548 1547 1547 1546 1545 1544 1543 1542 1541
1500 1502 1503 1505 1508 1510 1512 1514 1516 1518 1520 1521 1523 1525 1527 1529 1530 1532 1534 1535 1537 1538 1539 1541 1542 1543 1544 1545 1546 1547 1547 1547 1548 1548 1548 1548 1548 1547 1546 1544 1543 1542 1540
1499 1501 1504 1506 1508 1510 1513 1515 1517 1519 1521 1523 1525 1527 1528 1530 1532 1534 1536 1538 1540 1541 1542 1543 1544 1545 1546 1547 1548 1548 1549 1549 1549 1549 1549 1549 1548 1547 1546 1544 1543 1541 1540
1499 1501 1504 1506 1508 1511 1513 1516 1518 1520 1522 1524 1526 1528 1529 1531 1533 1535 1538 1540 1541 1542 1543 1545 1546 1548 1548 1549 1550 1550 1551 1550 1550 1550 1550 1549 1548 1547 1546 1544 1543 1541 1540
1500 1502 1505 1507 1510 1512 1514 1517 1520 1523 1524 1526 1528 1530 1532 1534 1536 1538 1540 1542 1544 1545 1546 1548 1549 1550 1551 1551 1552 1552 1552 1551 1551 1551 1550 1549 1548 1547 1546 1544 1542 1541 1539
1501 1503 1506 1509 1512 1514 1517 1519 1521 1525 1527 1529 1531 1533 1535 1536 1539 1541 1543 1545 1547 1548 1549 1550 1551 1552 1553 1553 1553 1553 1553 1552 1552 1551 1550 1549 1548 1547 1546 1544 1542 1540 1538
1503 1506 1509 1511 1514 1517 1519 1522 1524 1526 1528 1531 1535 1537 1538 1540 1543 1544 1546 1548 1549 1550 1551 1552 1553 1553 1554 1554 1554 1554 1554 1553 1552 1551 1550 1549 1548 1547 1545 1543 1542 1540 1537
1506 1509 1512 1515 1517 1520 1523 1525 1528 1530 1532 1535 1537 1540 1542 1544 1545 1547 1549 1550 1551 1552 1553 1554 1555 1554 1554 1554 1554 1554 1554 1553 1552 1551 1550 1549 1548 1546 1545 1543 1541 1539 1537
1509 1512 1515 1518 1521 1524 1527 1529 1532 1534 1536 1538 1541 1543 1545 1546 1548 1550 1551 1552 1553 1554 1554 1555 1555 1555 1555 1554 1554 1554 1554 1553 1552 1551 1550 1548 1547 1546 1544 1542 1540 1538 1536
1513 1516 1519 1522 1525 1528 1530 1533 1535 1537 1539 1541 1543 1545 1547 1549 1550 1552 1553 1553 1554 1555 1555 1556 1556 1555 1555 1554 1554 1554 1554 1552 1551 1550 1548 1547 1546 1545 1543 1541 1539 1537 1535
1517 1520 1523 1525 1528 1531 1534 1536 1538 1540 1542 1544 1546 1547 1549 1551 1552 1553 1554 1555 1555 1555 1555 1556 1556 1555 1555 1554 1554 1553 1552 1551 1550 1548 1547 1546 1545 1543 1542 1540 1538 1536 1533
1521 1523 1526 1529 1531 1534 1536 1539 1541 1542 1544 1546 1547 1549 1550 1551 1553 1554 1554 1555 1555 1555 1556 1556 1555 1555 1554 1554 1553 1552 1551 1550 1548 1547 1545 1544 1543 1542 1540 1539 1537 1534 1532
1524 1526 1529 1531 1534 1536 1538 1540 1542 1544 1545 1547 1549 1550 1551 1552 1553 1554 1555 1555 1555 1556 1556 1555 1555 1555 1554 1553 1552 1551 1550 1548 1547 1545 1544 1542 1541 1540 1539 1537 1535 1533 1530
1526 1529 1531 1533 1536 1538 1540 1542 1543 1545 1546 1548 1549 1550 1551 1552 1553 1554 1554 1555 1555 1555 1555 1555 1554 1554 1553 1552 1551 1550 1548 1547 1546 1544 1543 1541 1540 1538 1537 1535 1533 1531 1528
1529 1531 1533 1535 1537 1539 1541 1542 1544 1545 1547 1548 1549 1550 1551 1552 1553 1554 1554 1554 1555 1555 1555 1554 1554 1553 1552 1551 1550 1549 1547 1546 1544 1543 1541 1540 1538 1537 1535 1533 1531 1529 1526